This is the latest recevied weather packets stored in our database for station/object DM3DP. If no packets are shown the sender has not sent any weather packets the latest 10 day(s).
| Time | Temp. | Humidity | Pressure | Rain* | Wind** | Luminosity | Snow |
|---|---|---|---|---|---|---|---|
| 1777864645 | 11.11° C | 96% | 1010.8 hPa | 0 mm | - | 0 W/m² | - |
| 1777863984 | 11.11° C | 96% | 1010.8 hPa | 0 mm | - | 0 W/m² | - |
| 1777847216 | 13.33° C | 94% | 1010.9 hPa | 0 mm | - | 0 W/m² | - |
| 1777846227 | 13.89° C | 94% | 1010.8 hPa | 0 mm | - | 0 W/m² | - |
| 1777845897 | 13.89° C | 94% | 1010.8 hPa | 0 mm | - | 0 W/m² | - |
| 1777844906 | 13.89° C | 94% | 1010.8 hPa | 0 mm | - | 0 W/m² | - |
| 1777844247 | 13.89° C | 94% | 1010.8 hPa | 0 mm | - | 0 W/m² | - |
| 1777843256 | 13.89° C | 94% | 1010.8 hPa | 0 mm | - | 0 W/m² | - |
| 1777842926 | 14.44° C | 93% | 1010.8 hPa | 0 mm | - | 0 W/m² | - |
| 1777842267 | 14.44° C | 93% | 1010.7 hPa | 0 mm | - | 0 W/m² | - |
| 1777841606 | 14.44° C | 93% | 1010.7 hPa | 0 mm | - | 0 W/m² | - |
| 1777840616 | 14.44° C | 93% | 1010.7 hPa | 0 mm | - | 0 W/m² | - |
| 1777840286 | 15° C | 92% | 1010.7 hPa | 0 mm | - | 0 W/m² | - |
| 1777839957 | 15° C | 92% | 1010.7 hPa | 0 mm | - | 0 W/m² | - |
| 1777837977 | 15° C | 92% | 1010.7 hPa | 0 mm | - | 0 W/m² | - |
| 1777836987 | 15.56° C | 93% | 1010.7 hPa | 0 mm | - | 0 W/m² | - |
| 1777835667 | 15.56° C | 93% | 1010.5 hPa | 0 mm | - | 0 W/m² | - |
| 1777834346 | 16.11° C | 92% | 1010.3 hPa | 0 mm | - | 1 W/m² | - |
| 1777833686 | 16.11° C | 92% | 1010.2 hPa | 0 mm | - | 5 W/m² | - |
| 1777833356 | 16.11° C | 92% | 1010.1 hPa | 0 mm | - | 6 W/m² | - |
| 1777833027 | 16.11° C | 91% | 1010 hPa | 0 mm | - | 6 W/m² | - |
| 1777832696 | 16.11° C | 91% | 1010 hPa | 0 mm | - | 6 W/m² | - |
| 1777829726 | 16.67° C | 90% | 1010.1 hPa | 0 mm | - | 13 W/m² | - |
| 1777827416 | 17.22° C | 87% | 1010.1 hPa | 0.51 mm | - | 19 W/m² | - |
| 1777827087 | 17.22° C | 87% | 1010.3 hPa | 0.51 mm | - | 20 W/m² | - |
* Rain latest hour (hover to see other rain measurements)
** Current wind speed in m/s (hover to see current wind gust speed)